Printer-friendly version

IAU Minor Planet Center

Minor Planet Center

MPEC 2004-L19 : 2004 LG

The following Minor Planet Electronic Circular may be linked-to from your own Web pages, but must not otherwise be redistributed electronically.


Read MPEC 2004-L18 Read MPEC 2004-L20


M.P.E.C. 2004-L19                                Issued 2004 June 10, 10:51 UT

     The Minor Planet Electronic Circulars contain information on unusual
         minor planets and routine data on comets.  They are published
   on behalf of Commission 20 of the International Astronomical Union by the
          Minor Planet Center, Smithsonian Astrophysical Observatory,
                          Cambridge, MA 02138, U.S.A.

         Supported in part by the Steven and Michele Kirsch Foundation
             Prepared using the Tamkin Foundation Computer Network

                              MPC@CFA.HARVARD.EDU
          URL http://cfa-www.harvard.edu/iau/mpc.html  ISSN 1523-6714

                                    2004 LG

Observations:
     K04L00G* C2004 06 09.27551 18 14 43.64 +24 08 13.5          18.9   EL019704
     K04L00G  C2004 06 09.28562 18 14 40.90 +24 09 02.4          19.5   EL019704
     K04L00G  C2004 06 09.29573 18 14 38.21 +24 09 50.9          19.0   EL019704
     K04L00G  C2004 06 09.31600 18 14 32.77 +24 11 29.9          19.1   EL019704
     K04L00G  C2004 06 09.93266 18 11 47.95 +25 01 22.2          19.5 R EL019620
     K04L00G  C2004 06 09.93491 18 11 47.22 +25 01 31.9          19.8 R EL019132
     K04L00G  C2004 06 09.93745 18 11 46.53 +25 01 44.3          19.4 R EL019132
     K04L00G  C2004 06 09.94290 18 11 44.94 +25 02 11.3          18.7 R EL019132
     K04L00G  C2004 06 10.08972 18 11 04.77 +25 14 24.2          18.6 R EL019859
     K04L00G  C2004 06 10.09461 18 11 03.40 +25 14 48.2          18.8 R EL019859
     K04L00G  C2004 06 10.20773 18 10 32.36 +25 23 51.4          18.6 R EL019G90
     K04L00G  C2004 06 10.21712 18 10 29.71 +25 24 37.8          18.6 R EL019G90
     K04L00G  C2004 06 10.22063 18 10 28.75 +25 24 55.0          18.8 R EL019G90
     K04L00G  C2004 06 10.23413 18 10 24.99 +25 26 01.1          19.9 R EL019854
     K04L00G  C2004 06 10.24394 18 10 22.13 +25 26 49.7          19.9 R EL019854
     K04L00G  C2004 06 10.27244 18 10 14.17 +25 29 09.1          18.6 R EL019G70
     K04L00G  C2004 06 10.30076 18 10 06.24 +25 31 28.3                 EL019G70
     K04L00G  C2004 06 10.31481 18 10 02.17 +25 32 37.5          18.7 R EL019G70

Observer details:
132 Bedoin.  Observer P. Antonini.  0.30-m f/3.3 Schmidt-Cassegrain + CCD.
620 Observatorio Astronomico de Mallorca.  Observers S. Sanchez, R. Stoss,
    J. Nomen.  0.30-m f/9 Schmidt-Cassegrain + CCD.
704 Lincoln Laboratory ETS, New Mexico.  Observers M. Blythe, F. Shelly,
    M. Bezpalko, R. Huber, L. Manguso, D. Torres, R. Kracke, M. McCleary,
    H. Stange, A. Milner.  Measurers J. Stuart, R. Sayer, J. Evans, J. Kommers.
    1.0-m f/2.15 reflector + CCD.
854 Sabino Canyon Observatory, Tucson.  Observer J. E. McGaha.  0.356-m f/10.0
    Schmidt-Cassegrain + CCD.
859 Wykrota Observatory-CEAMIG.  Observer C. Jacques.  0.30-m f/3.0
    Schmidt-Cassegrain + CCD.
G70 Francisquito Observatory, Los Angeles.  Observer R. E. Jones.  0.30-m
    f/6.7 reflector + CCD.
G90 Three Buttes Observatory, Tucson.  Observer G. R. Jones.  0.4-m
    Ritchey-Chretien + CCD.

Orbital elements:
2004 LG
Epoch 2004 June 4.0 TT = JDT 2453160.5                  MPC
M 336.31987              (2000.0)            P               Q
n   0.30848897     Peri.  163.94006     +0.29362397     -0.22985764
a   2.1692501      Node   257.37458     +0.73854488     +0.67081342
e   0.9010019      Incl.   71.96475     +0.60690727     -0.70510624
P   3.19           H   18.2           G   0.15
From 18 observations 2004 June 9-10.

Ephemeris:
2004 LG                  a,e,i = 2.17, 0.90, 72                  q = 0.2148
Date    TT    R. A. (2000) Decl.     Delta      r     Elong.  Phase     V
2004 06 04    18 34.39   +17 30.0    0.729    1.600   132.5    27.9    19.8
2004 06 14    17 50.80   +30 43.2    0.610    1.459   125.8    34.4    19.4
2004 06 24    16 33.27   +44 27.5    0.562    1.308   108.5    47.5    19.3
2004 07 04    14 40.70   +52 27.4    0.585    1.145    86.8    62.5    19.6
2004 07 14    12 52.16   +52 32.1    0.658    0.967    66.6    74.7    19.8

Timothy B. Spahr             (C) Copyright 2004 MPC           M.P.E.C. 2004-L19

Read MPEC 2004-L18 Read MPEC 2004-L20


Our Web policy. Index to the CBAT/MPC/ICQ pages.


Valid HTML 4.01!